Orbital Elements at Epoch 2459000.5 (2020-May-31.0) TDB
Reference: JPL 19 (heliocentric ecliptic J2000)
Element | Value | Uncertainty (1-sigma) | Units |
e | .05907042542575885 | 4.6914e-08 | |
a | 2.738414039295993 | 1.9098e-08 | au |
q | 2.576654757002908 | 1.2909e-07 | au |
i | 4.546757090737224 | 5.9658e-06 | deg |
node | 215.7248866149953 | 6.1772e-05 | deg |
peri | 22.13577775864885 | 7.9951e-05 | deg |
M | 97.14932543178622 | 5.2634e-05 | deg |
tp | 2458553.832468538195 (2019-Mar-11.33246854) | 0.00024051 | TDB |
period | 1655.1871113007 4.53 | 1.7315e-05 4.741e-08 | d yr |
n | .2174980686727921 | 2.2753e-09 | deg/d |
Q | 2.900173321589078 | 2.0226e-08 | au |
|
| | Orbit Determination Parameters
Additional Information
|